Farmington, NM (87401)

4:01 AM MDT on September 02, 2015 (GMT -0600)
Butler and 23rd Street | | Change Station
CLOSE
Current Station
Personal Weather Station
Location: Farmington, NM
Elevation: 5500 ft
Nearby Weather Stations

Elev 5500 ft 36.75 °N, 108.20 °W | Updated 15 seconds ago

Clear
Clear
63.0 °F
Feels Like 63.0 °F
N
0.0
Wind Variable Wind from NE
Gusts 3.0 mph

Today
High -- | Low -- °F
--% Chance of Precip.
Yesterday
High -- | Low -- °F
Precip. -- in
6:44 AM 7:39 PM
Waning Gibbous, 81% visible
Pressure 30.00 in
Visibility 10.0 miles
Clouds Clear
Dew Point 53 °F
Humidity 70%
Rainfall 0.00 in
Snow Depth Not available.
UV 0 out of 12
Pollen 8.20 out of 12
Air Quality Not available.
Flu Activity Not available.
METAR KFMN 020953Z AUTO 06005KT 10SM CLR 16/07 A3018 RMK AO2 SLP157 T01560067
Pressure 30.00 in
Visibility 10.0 miles
Clouds Clear
Dew Point 53 °F
Humidity 70%
Rainfall 0.00 in
Snow Depth Not available.
UV 0 out of 12
Pollen 8.20 out of 12
Air Quality Not available.
Flu Activity Not available.
METAR KFMN 020953Z AUTO 06005KT 10SM CLR 16/07 A3018 RMK AO2 SLP157 T01560067

10-Day Weather Forecast

×

Almanac

Astronomy

Sep. 02, 2015 Rise Set
Actual Time
Civil Twilight
Nautical Twilight
Astronomical Twilight
Moon
Length of Visible Light
Length of Day
Tomorrow will be .
, % of the Moon is Illuminated

Today's Extremes

State Highs State Lows

Community

WunderPhotos

Upload Photos

1,851,731 photos uploaded!

WunderBlogs® & News

Nearby

Air Quality

  Air Quality AQ Index Pollutant
Not available.

Snow Depth

Station Depth Elevation

Earthquake Activity

City Distance Mag. Time & Date
Minimum magnitude displayed is 2.5.

Coastal Water Temperatures

Place Temperature

Stations

Nearby Weather Stations

Station Location Temp. Windchill Dew Point Humidity Wind Precip. Elev Updated Type